When you browse on this site, cookies collect data to enhance your experience and personalize the content and advertising you see.
Visit our Privacy Policy to learn more. By continuing to use the site, you agree to this use of cookies and data.
  • în România
  • Lista ţărilor
  • Pe 7 zile
  • Temperatura apei
  • Hartă satelitară
  • Meteo pe hartă
  • Widget-uri
  • user-avatar
    Intrare

    Meteo pe oră la El Paso

    Astăzi, 20 Mai, Luni

    Timp Temperatura Precipitaţii Vânt Presiune Umiditate
    00:00 +26°C° 0 mm 6 m/s 657 mmHg 15%
    01:00 +24°C° 0 mm 7 m/s 657 mmHg 16%
    02:00 +23°C° 0 mm 8 m/s 657 mmHg 17%
    03:00 +22°C° 0 mm 7 m/s 657 mmHg 19%
    04:00 +21°C° 0 mm 7 m/s 657 mmHg 21%
    05:00 +20°C° 0 mm 6 m/s 657 mmHg 22%
    06:00 +21°C° 0 mm 7 m/s 657 mmHg 21%
    07:00 +21°C° 0 mm 7 m/s 657 mmHg 20%
    08:00 +22°C° 0 mm 8 m/s 657 mmHg 19%
    09:00 +23°C° 0 mm 9 m/s 657 mmHg 18%
    10:00 +24°C° 0 mm 9 m/s 657 mmHg 17%
    11:00 +26°C° 0 mm 10 m/s 657 mmHg 15%
    12:00 +27°C° 0 mm 11 m/s 657 mmHg 15%
    13:00 +28°C° 0 mm 13 m/s 656 mmHg 14%
    14:00 +29°C° 0 mm 14 m/s 655 mmHg 13%
    15:00 +28°C° 0 mm 15 m/s 655 mmHg 13%
    16:00 +27°C° 0 mm 16 m/s 655 mmHg 12%
    17:00 +26°C° 0 mm 16 m/s 655 mmHg 11%
    18:00 +22°C° 0 mm 15 m/s 655 mmHg 19%
    19:00 +19°C° 0 mm 14 m/s 655 mmHg 27%
    20:00 +15°C° 0 mm 13 m/s 656 mmHg 35%
    21:00 +15°C° 0 mm 12 m/s 656 mmHg 31%
    22:00 +14°C° 0 mm 12 m/s 657 mmHg 28%
    23:00 +13°C° 0 mm 11 m/s 657 mmHg 24%

    Mâine, 21 Mai, Marţi

    Timp Temperatura Precipitaţii Vânt Presiune Umiditate
    00:00 +13°C° 0 mm 11 m/s 657 mmHg 26%
    01:00 +13°C° 0 mm 10 m/s 657 mmHg 27%
    02:00 +12°C° 0 mm 9 m/s 657 mmHg 29%
    03:00 +12°C° 0 mm 9 m/s 657 mmHg 30%
    04:00 +12°C° 0 mm 8 m/s 657 mmHg 31%
    05:00 +11°C° 0 mm 8 m/s 657 mmHg 32%
    06:00 +12°C° 0 mm 8 m/s 657 mmHg 30%
    07:00 +13°C° 0 mm 9 m/s 657 mmHg 28%
    08:00 +15°C° 0 mm 9 m/s 658 mmHg 26%
    09:00 +16°C° 0 mm 9 m/s 658 mmHg 23%
    10:00 +18°C° 0 mm 9 m/s 658 mmHg 19%
    11:00 +21°C° 0 mm 9 m/s 658 mmHg 16%
    12:00 +22°C° 0 mm 10 m/s 657 mmHg 14%
    13:00 +24°C° 0 mm 10 m/s 657 mmHg 12%
    14:00 +26°C° 0 mm 11 m/s 657 mmHg 10%
    15:00 +27°C° 0 mm 11 m/s 656 mmHg 9%
    16:00 +27°C° 0 mm 11 m/s 656 mmHg 9%
    17:00 +28°C° 0 mm 12 m/s 655 mmHg 8%
    18:00 +27°C° 0 mm 11 m/s 655 mmHg 9%
    19:00 +26°C° 0 mm 10 m/s 655 mmHg 10%
    20:00 +24°C° 0 mm 8 m/s 655 mmHg 11%
    21:00 +23°C° 0 mm 8 m/s 656 mmHg 12%
    22:00 +22°C° 0 mm 7 m/s 656 mmHg 14%
    23:00 +21°C° 0 mm 7 m/s 656 mmHg 15%

    Poimâine, 22 Mai, Miercuri

    Timp Temperatura Precipitaţii Vânt Presiune Umiditate
    00:00 +20°C° 0 mm 6 m/s 656 mmHg 17%
    01:00 +20°C° 0 mm 5 m/s 655 mmHg 19%
    02:00 +19°C° 0 mm 4 m/s 655 mmHg 21%
    03:00 +18°C° 0 mm 3 m/s 655 mmHg 21%
    04:00 +18°C° 0 mm 3 m/s 655 mmHg 22%
    05:00 +17°C° 0 mm 3 m/s 655 mmHg 23%
    06:00 +19°C° 0 mm 4 m/s 656 mmHg 19%
    07:00 +21°C° 0 mm 4 m/s 657 mmHg 16%
    08:00 +22°C° 0 mm 5 m/s 657 mmHg 12%
    09:00 +24°C° 0 mm 6 m/s 658 mmHg 11%
    10:00 +27°C° 0 mm 7 m/s 658 mmHg 9%
    11:00 +28°C° 0 mm 8 m/s 658 mmHg 8%
    12:00 +31°C° 0 mm 9 m/s 658 mmHg 7%
    13:00 +32°C° 0 mm 9 m/s 658 mmHg 7%
    14:00 +34°C° 0 mm 9 m/s 657 mmHg 7%
    15:00 +34°C° 0 mm 10 m/s 657 mmHg 7%
    16:00 +34°C° 0 mm 10 m/s 657 mmHg 7%
    17:00 +33°C° 0 mm 11 m/s 656 mmHg 7%
    18:00 +32°C° 0 mm 10 m/s 657 mmHg 10%
    19:00 +29°C° 0 mm 9 m/s 657 mmHg 12%
    20:00 +27°C° 0 mm 8 m/s 657 mmHg 14%
    21:00 +26°C° 0 mm 9 m/s 658 mmHg 16%
    22:00 +24°C° 0 mm 9 m/s 658 mmHg 19%
    23:00 +23°C° 0 mm 9 m/s 658 mmHg 21%

    23 Mai, Joi

    Timp Temperatura Precipitaţii Vânt Presiune Umiditate
    00:00 +22°C° 0 mm 7 m/s 658 mmHg 22%
    01:00 +21°C° 0 mm 6 m/s 658 mmHg 22%
    02:00 +20°C° 0 mm 4 m/s 658 mmHg 23%
    03:00 +19°C° 0 mm 4 m/s 658 mmHg 25%
    04:00 +18°C° 0 mm 3 m/s 658 mmHg 26%
    05:00 +17°C° 0 mm 2 m/s 659 mmHg 27%
    06:00 +19°C° 0 mm 3 m/s 660 mmHg 25%
    07:00 +20°C° 0 mm 4 m/s 660 mmHg 23%
    08:00 +21°C° 0 mm 5 m/s 661 mmHg 21%
    09:00 +22°C° 0 mm 5 m/s 661 mmHg 19%
    10:00 +23°C° 0 mm 6 m/s 662 mmHg 18%
    11:00 +26°C° 0 mm 6 m/s 662 mmHg 16%
    12:00 +27°C° 0 mm 6 m/s 662 mmHg 15%
    13:00 +28°C° 0 mm 6 m/s 661 mmHg 13%
    14:00 +29°C° 0 mm 6 m/s 661 mmHg 12%
    15:00 +30°C° 0 mm 6 m/s 661 mmHg 11%
    16:00 +30°C° 0 mm 6 m/s 661 mmHg 10%
    17:00 +32°C° 0 mm 6 m/s 660 mmHg 10%
    18:00 +29°C° 0 mm 6 m/s 660 mmHg 11%
    19:00 +28°C° 0 mm 5 m/s 660 mmHg 13%
    20:00 +27°C° 0 mm 5 m/s 660 mmHg 14%
    21:00 +26°C° 0 mm 4 m/s 661 mmHg 16%
    22:00 +25°C° 0 mm 4 m/s 661 mmHg 18%
    23:00 +24°C° 0 mm 3 m/s 661 mmHg 19%

    24 Mai, Vineri

    Timp Temperatura Precipitaţii Vânt Presiune Umiditate
    00:00 +22°C° 0 mm 3 m/s 661 mmHg 21%
    01:00 +23°C° 0 mm 2 m/s 660 mmHg 23%
    02:00 +21°C° 0 mm 2 m/s 660 mmHg 24%
    03:00 +20°C° 0 mm 2 m/s 660 mmHg 26%
    04:00 +20°C° 0 mm 1 m/s 660 mmHg 27%
    05:00 +20°C° 0 mm 1 m/s 660 mmHg 29%
    06:00 +21°C° 0 mm 1 m/s 661 mmHg 26%
    07:00 +23°C° 0 mm 1 m/s 662 mmHg 23%
    08:00 +24°C° 0 mm 1 m/s 663 mmHg 20%
    09:00 +25°C° 0 mm 2 m/s 663 mmHg 18%
    10:00 +27°C° 0 mm 2 m/s 663 mmHg 17%
    11:00 +28°C° 0 mm 3 m/s 663 mmHg 16%
    12:00 +29°C° 0 mm 4 m/s 663 mmHg 15%
    13:00 +30°C° 0 mm 4 m/s 662 mmHg 14%
    14:00 +32°C° 0 mm 5 m/s 662 mmHg 13%
    15:00 +32°C° 0 mm 4 m/s 661 mmHg 12%
    16:00 +33°C° 0 mm 3 m/s 661 mmHg 12%
    17:00 +32°C° 0 mm 2 m/s 661 mmHg 12%
    18:00 +31°C° 0 mm 2 m/s 661 mmHg 12%
    19:00 +30°C° 0 mm 2 m/s 661 mmHg 13%
    20:00 +29°C° 0 mm 2 m/s 661 mmHg 14%
    21:00 +28°C° 0 mm 3 m/s 661 mmHg 14%
    22:00 +28°C° 0 mm 4 m/s 661 mmHg 14%
    23:00 +27°C° 0 mm 5 m/s 661 mmHg 13%

    25 Mai, Sâmbătă

    Timp Temperatura Precipitaţii Vânt Presiune Umiditate
    00:00 +26°C° 0 mm 4 m/s 661 mmHg 15%
    01:00 +25°C° 0 mm 3 m/s 661 mmHg 16%
    02:00 +24°C° 0 mm 3 m/s 660 mmHg 17%
    03:00 +23°C° 0 mm 2 m/s 660 mmHg 18%
    04:00 +21°C° 0 mm 2 m/s 660 mmHg 18%
    05:00 +21°C° 0 mm 2 m/s 660 mmHg 19%
    06:00 +23°C° 0 mm 1 m/s 661 mmHg 18%
    07:00 +25°C° 0 mm 1 m/s 662 mmHg 16%
    08:00 +26°C° 0 mm 1 m/s 662 mmHg 14%
    09:00 +27°C° 0 mm 2 m/s 663 mmHg 13%
    10:00 +29°C° 0 mm 2 m/s 663 mmHg 12%
    11:00 +30°C° 0 mm 3 m/s 663 mmHg 11%
    12:00 +32°C° 0 mm 4 m/s 663 mmHg 10%
    13:00 +33°C° 0 mm 5 m/s 662 mmHg 9%
    14:00 +34°C° 0 mm 6 m/s 662 mmHg 8%
    15:00 +35°C° 0 mm 5 m/s 662 mmHg 8%
    16:00 +35°C° 0 mm 4 m/s 661 mmHg 7%
    17:00 +35°C° 0 mm 4 m/s 661 mmHg 6%
    18:00 +34°C° 0 mm 5 m/s 661 mmHg 7%
    19:00 +32°C° 0 mm 6 m/s 660 mmHg 9%
    20:00 +30°C° 0 mm 7 m/s 660 mmHg 10%
    21:00 +29°C° 0 mm 7 m/s 660 mmHg 11%
    22:00 +28°C° 0 mm 6 m/s 661 mmHg 13%
    23:00 +27°C° 0 mm 6 m/s 661 mmHg 14%
    Arată mai mult